User: anonymous   Login
Location: *
(44.1392°N, 4.8079°E)
Time: 07:16:43
(UTC+00:00)
Language:

FENGYUN 1C DEB - Orbit

View from above orbital plane
View from above orbital plane
View from above satellite
View from above satellite

Ground track
Ground track

The orbit data is extracted from the following two-line orbital elements,

1 30115U 99025RU  22028.79691541  .00000647  00000-0  36440-3 0  9998
2 30115  98.7557  75.8453 0075998 145.9029 266.0307 14.12307845773267
Epoch (UTC): 28 January 2022 19:07:33
Eccentricity: 0.0075998
inclination: 98.7557°
perigee height: 796 km
apogee height: 906 km
right ascension of ascending node: 75.8453°
argument of perigee: 145.9029°
revolutions per day: 14.12307845
mean anomaly at epoch: 266.0307°
orbit number at epoch: 77326

The dashed part of the orbit path shows where the satellite is in the earth's shadow,  

DLR